Hourly Data Report for October 10, 2014

All times are specified in Local Standard Time (LST). Add 1 hour to adjust for Daylight Saving Time where and when it is observed.

CHARLOTTETOWN A
PRINCE EDWARD ISLAND

46°17'21.000" N
63°07'09.000" W
48.50 m
8300301
71706
YYG

Download Data

Hourly Data (October 2014)
Hourly Data Report for October 10, 2014
Temp Definition
°C
Dew Point Temp Definition
°C
Rel Hum Definition
%
Wind Dir Definition
10's deg

Wind Spd Definition
km/h
Visibility Definition
km
Stn Press Definition
kPa
Hmdx Definition


Wind Chill Definition


Weather Definition


TIME
00:00 Legend Double Dagger 10.5 7.4 81 21 11 24.1 100.35     LegendNANA
01:00 Legend Double Dagger 10.6 7.9 83 21 19 24.1 100.31     LegendNANA
02:00 Legend Double Dagger 10.6 8.0 84 22 23 24.1 100.31     Mainly Clear
03:00 Legend Double Dagger 10.5 4.7 67 24 25 24.1 100.33     LegendNANA
04:00 Legend Double Dagger 9.8 2.4 60 25 17 24.1 100.37     LegendNANA
05:00 Legend Double Dagger 8.6 3.1 68 23 13 24.1 100.39     Clear
06:00 Legend Double Dagger 8.3 2.1 65 24 19 24.1 100.41     LegendNANA
07:00 Legend Double Dagger 8.4 1.3 61 24 23 24.1 100.48     LegendNANA
08:00 Legend Double Dagger 9.3 0.8 55 25 34 24.1 100.51     Mainly Clear
09:00 Legend Double Dagger 10.1 1.8 56 24 27 24.1 100.53     LegendNANA
10:00 Legend Double Dagger 11.0 2.1 54 25 29 24.1 100.55     LegendNANA
11:00 Legend Double Dagger 11.8 2.6 53 23 34 24.1 100.54     Mainly Clear
12:00 Legend Double Dagger 12.6 3.9 55 24 24 24.1 100.54     LegendNANA
13:00 Legend Double Dagger 13.4 4.1 53 24 23 24.1 100.54     LegendNANA
14:00 Legend Double Dagger 13.9 4.6 53 23 28 24.1 100.53     Mainly Clear
15:00 Legend Double Dagger 14.4 4.5 51 23 26 24.1 100.56     LegendNANA
16:00 Legend Double Dagger 14.0 4.6 53 22 28 24.1 100.58     LegendNANA
17:00 Legend Double Dagger 13.1 4.6 56 23 25 24.1 100.64     Mainly Clear
18:00 Legend Double Dagger 11.5 5.2 65 22 17 24.1 100.71     LegendNANA
19:00 Legend Double Dagger 11.1 4.8 65 24 17 24.1 100.82     LegendNANA
20:00 Legend Double Dagger 10.6 6.4 75 23 18 24.1 100.85     Mainly Clear
21:00 Legend Double Dagger 10.5 6.9 78 25 15 24.1 100.91     LegendNANA
22:00 Legend Double Dagger 9.8 6.9 82 26 10 24.1 100.96     LegendNANA
23:00 Legend Double Dagger 8.9 6.7 86 26 8 24.1 100.97     Mainly Clear

Notes on Data Quality.

Legend

  • E = Estimated
  • M = Missing
  • NA = Not Available
  • ‡ = Partner data that is not subject to review by the National Climate Archives
Date modified: